Hourly Data Report for May 09, 2021

DRYDEN REGIONAL
ONTARIO
Current Station Operator: NAVCAN

49°49'39.000" N
92°44'39.000" W
412.70 m
6032125
71527
YHD

Download Data

Hourly Data (May 2021)
Hourly Data Report for May 9, 2021
TIME
LST
Temp Definition
°C
Dew Point Definition
°C
Rel Hum Definition
%
Precip. Amount Definition
mm

Wind Dir Definition
10's deg

Wind Spd Definition
km/h
Visibility Definition
km
Stn Press Definition
kPa
Hmdx Definition


Wind Chill Definition


Weather Definition


00:00 1.9 -3.6 67 0.0 4 17 16.1 97.17     LegendNANA
01:00 1.1 -3.4 72 0.0 4 21 16.1 97.15     LegendNANA
02:00 0.3 -3.1 78 0.0 4 11 16.1 97.18     LegendNANA
03:00 -0.6 -3.4 81 0.0 3 11 16.1 97.19   -4 LegendNANA
04:00 -1.2 -3.4 85 0.0 3 11 16.1 97.22   -5 LegendNANA
05:00 -1.4 -3.3 87 0.0 3 8 16.1 97.24   -4 LegendNANA
06:00 -0.5 -3.0 83 0.0 1 9 16.1 97.29   -4 LegendNANA
07:00 0.7 -3.4 74 0.0 3 11 16.1 97.33     LegendNANA
08:00 1.1 -3.8 70 0.0 2 13 16.1 97.36     LegendNANA
09:00 1.2 -3.9 69 0.0 1 15 16.1 97.38     LegendNANA
10:00 2.6 -3.4 65 0.0 4 17 16.1 97.39     LegendNANA
11:00 2.5 -3.8 63 0.0 2 13 16.1 97.41     LegendNANA
12:00 3.8 -4.3 56 0.0 36 18 16.1 97.36     LegendNANA
13:00 6.5 -3.9 48 0.0 2 15 16.1 97.32     LegendNANA
14:00 5.1 -5.5 46 0.0 5 22 16.1 97.30     LegendNANA
15:00 4.7 -5.7 47 0.0 1 15 16.1 97.30     LegendNANA
16:00 5.2 -5.2 47 0.0 4 15 16.1 97.31     LegendNANA
17:00 5.5 -4.9 47 0.0 1 13 16.1 97.34     LegendNANA
18:00 4.4 -3.2 58 0.0 5 11 16.1 97.34     LegendNANA
19:00 5.1 -5.3 47 0.0 3 15 16.1 97.36     LegendNANA
20:00 3.5 -5.7 51 0.0 3 11 16.1 97.42     LegendNANA
21:00 2.5 -5.4 56 0.0 4 13 16.1 97.49     LegendNANA
22:00 1.7 -5.5 59 0.0 2 9 16.1 97.50     LegendNANA
23:00 1.6 -4.4 64 0.0 3 11 16.1 97.53     LegendNANA

Notes on Data Quality.

Legend

  • E = Estimated
  • M = Missing
  • NA = Not Available*
  • [empty] = Indicates an unobserved value
Date modified: